RYR4696 GCRR-LEAL

Flight info

Callsign RYR4696
Flight time N/A
Altitude 36000
Route KORAL UG5 SONSO DCT NIRAL/N0438F380 UN871 OSDAM UM985 BARPA DCT XAVIR DCT PIMOS M445 ETURA T252 XEBAR M985 ASTRO
Aircraft B738/M-SDE3FGILRWY/SB1

Departure

Time 2026-05-01 14:35
Airport César Manrique-Lanzarote Airport (GCRR)

Arrival

Time N/A
Airport Alicante-Elche Miguel Hernández Airport (LEAL)
Time Latitude Longitude Altitude Speed Heading
2026-05-01 14:11 28.95012 -13.60753 49 ft 0 kts 296°
2026-05-01 14:28 28.94995 -13.60715 44 ft 2 kts 296°
2026-05-01 14:28 28.94986 -13.60691 48 ft 4 kts 278°
2026-05-01 14:28 28.94988 -13.60662 49 ft 4 kts 242°
2026-05-01 14:28 28.95005 -13.60640 46 ft 4 kts 208°
2026-05-01 14:29 28.95010 -13.60637 44 ft 0 kts 206°
2026-05-01 14:31 28.95009 -13.60637 47 ft 1 kts 206°
2026-05-01 14:31 28.94964 -13.60662 49 ft 12 kts 206°
2026-05-01 14:31 28.94895 -13.60639 49 ft 12 kts 118°
2026-05-01 14:31 28.94843 -13.60570 49 ft 12 kts 175°
2026-05-01 14:32 28.94746 -13.60615 49 ft 19 kts 206°
2026-05-01 14:32 28.94596 -13.60699 42 ft 26 kts 207°
2026-05-01 14:32 28.94419 -13.60802 31 ft 30 kts 207°
2026-05-01 14:32 28.94247 -13.60902 27 ft 25 kts 207°
2026-05-01 14:33 28.94097 -13.60990 29 ft 23 kts 207°
2026-05-01 14:33 28.93956 -13.61073 25 ft 23 kts 207°
2026-05-01 14:33 28.93814 -13.61155 23 ft 24 kts 207°
2026-05-01 14:33 28.93675 -13.61219 25 ft 13 kts 170°
2026-05-01 14:34 28.93621 -13.61141 24 ft 13 kts 114°
2026-05-01 14:34 28.93633 -13.61052 24 ft 12 kts 32°
2026-05-01 14:34 28.93825 -13.60940 27 ft 63 kts 27°
2026-05-01 14:34 28.94420 -13.60596 32 ft 126 kts 27°
2026-05-01 14:35 28.95341 -13.60064 225 ft 160 kts 28°
2026-05-01 14:35 28.96358 -13.59484 938 ft 166 kts 30°
2026-05-01 14:35 28.97328 -13.58794 1646 ft 172 kts 37°
2026-05-01 14:35 28.98334 -13.57852 1974 ft 200 kts 40°
2026-05-01 14:36 28.99485 -13.56807 2210 ft 220 kts 38°
2026-05-01 14:36 29.00711 -13.55706 2718 ft 228 kts 43°
2026-05-01 14:36 29.01755 -13.54298 3169 ft 237 kts 53°
2026-05-01 14:36 29.02806 -13.52749 3490 ft 255 kts 51°
2026-05-01 14:37 29.03941 -13.51135 4091 ft 264 kts 50°
2026-05-01 14:37 29.05105 -13.49486 4864 ft 269 kts 50°
2026-05-01 14:37 29.06291 -13.47802 5578 ft 275 kts 50°
2026-05-01 14:37 29.07516 -13.46069 6206 ft 284 kts 49°
2026-05-01 14:38 29.08757 -13.44306 6984 ft 286 kts 50°
2026-05-01 14:38 29.10011 -13.42519 7665 ft 291 kts 51°
2026-05-01 14:38 29.11287 -13.40699 8347 ft 295 kts 51°
2026-05-01 14:38 29.12578 -13.38857 9075 ft 299 kts 51°
2026-05-01 14:39 29.13885 -13.36988 9771 ft 303 kts 52°
2026-05-01 14:39 29.15213 -13.35089 10336 ft 312 kts 52°
2026-05-01 14:39 29.16621 -13.33072 10498 ft 335 kts 52°
2026-05-01 14:39 29.18113 -13.30936 10826 ft 350 kts 52°
2026-05-01 14:40 29.19623 -13.28772 11370 ft 356 kts 52°
2026-05-01 14:40 29.21176 -13.26548 12007 ft 359 kts 52°
2026-05-01 14:40 29.22039 -13.25311 12361 ft 361 kts 52°
2026-05-01 14:40 29.22279 -13.24967 12456 ft 362 kts 52°
2026-05-01 14:41 29.23861 -13.22699 13077 ft 367 kts 52°
2026-05-01 14:41 29.25461 -13.20403 13708 ft 371 kts 52°
2026-05-01 14:41 29.27083 -13.18074 14297 ft 376 kts 52°
2026-05-01 14:41 29.28723 -13.15718 14867 ft 381 kts 52°
2026-05-01 14:42 29.30384 -13.13330 15458 ft 385 kts 52°
2026-05-01 14:42 29.32062 -13.10916 16054 ft 390 kts 52°
2026-05-01 14:42 29.33764 -13.08468 16629 ft 395 kts 52°
2026-05-01 14:42 29.35484 -13.05990 17212 ft 400 kts 52°
2026-05-01 14:43 29.37225 -13.03482 17801 ft 404 kts 52°
2026-05-01 14:43 29.38983 -13.00947 18386 ft 409 kts 52°
2026-05-01 14:43 29.40762 -12.98380 18908 ft 413 kts 52°
2026-05-01 14:43 29.42552 -12.95797 19473 ft 415 kts 51°
2026-05-01 14:44 29.44349 -12.93201 20052 ft 417 kts 51°
2026-05-01 14:44 29.47975 -12.87959 21172 ft 422 kts 51°
2026-05-01 14:44 29.49807 -12.85307 21698 ft 426 kts 51°
2026-05-01 14:45 29.51653 -12.82633 22205 ft 429 kts 51°
2026-05-01 14:45 29.54473 -12.78546 23001 ft 433 kts 51°
2026-05-01 14:45 29.54997 -12.77786 23143 ft 434 kts 51°
2026-05-01 14:46 29.56876 -12.75059 23630 ft 438 kts 51°
2026-05-01 14:46 29.60678 -12.69537 24487 ft 443 kts 51°
2026-05-01 14:46 29.62591 -12.66756 24944 ft 444 kts 51°
2026-05-01 14:47 29.64510 -12.63964 25371 ft 446 kts 51°
2026-05-01 14:47 29.66438 -12.61156 25789 ft 448 kts 51°
2026-05-01 14:47 29.68376 -12.58333 26198 ft 451 kts 51°
2026-05-01 14:48 29.72275 -12.52646 27005 ft 455 kts 51°
2026-05-01 14:48 29.74238 -12.49780 27394 ft 457 kts 51°
2026-05-01 14:48 29.78190 -12.44003 28151 ft 461 kts 51°
2026-05-01 14:49 29.82174 -12.38172 28854 ft 467 kts 50°
2026-05-01 14:49 29.86215 -12.32248 29485 ft 472 kts 50°
2026-05-01 14:50 29.88907 -12.28297 29992 ft 474 kts 50°
2026-05-01 14:50 29.91784 -12.24070 30430 ft 477 kts 50°
2026-05-01 14:51 29.93833 -12.21056 30683 ft 479 kts 50°
2026-05-01 14:51 29.97963 -12.14976 31195 ft 483 kts 50°
2026-05-01 14:52 30.02169 -12.08953 31936 ft 479 kts 45°
2026-05-01 14:52 30.04502 -12.06221 32308 ft 477 kts 42°
2026-05-01 14:52 30.09316 -12.00945 32949 ft 477 kts 41°
2026-05-01 14:53 30.11732 -11.98323 33293 ft 476 kts 41°
2026-05-01 14:53 30.14135 -11.95693 33633 ft 476 kts 41°
2026-05-01 14:53 30.16525 -11.93053 33948 ft 476 kts 41°
2026-05-01 14:53 30.18908 -11.90400 34241 ft 475 kts 41°
2026-05-01 14:54 30.21282 -11.87743 34508 ft 475 kts 41°
2026-05-01 14:54 30.23650 -11.85084 34798 ft 474 kts 41°
2026-05-01 14:54 30.26010 -11.82429 35062 ft 474 kts 41°
2026-05-01 14:54 30.28373 -11.79768 35316 ft 474 kts 41°
2026-05-01 14:55 30.30734 -11.77109 35561 ft 473 kts 41°
2026-05-01 14:55 30.33090 -11.74454 35821 ft 473 kts 41°
2026-05-01 14:55 30.34127 -11.73285 35936 ft 472 kts 41°
2026-05-01 14:56 30.37220 -11.69797 36161 ft 474 kts 41°
2026-05-01 14:56 30.41972 -11.64436 36150 ft 477 kts 41°
2026-05-01 14:57 30.46706 -11.59082 36141 ft 472 kts 41°
2026-05-01 14:57 30.53728 -11.51128 36148 ft 469 kts 41°
2026-05-01 14:58 30.58395 -11.45835 36147 ft 469 kts 41°
2026-05-01 14:58 30.63053 -11.40544 36148 ft 468 kts 41°
2026-05-01 14:59 30.67711 -11.35245 36148 ft 469 kts 41°
2026-05-01 14:59 30.72342 -11.29970 36142 ft 470 kts 41°
2026-05-01 15:00 30.77976 -11.23542 36155 ft 471 kts 41°
2026-05-01 15:01 30.81336 -11.19703 36154 ft 473 kts 41°
2026-05-01 15:01 30.86034 -11.14328 36147 ft 474 kts 41°
2026-05-01 15:02 30.90746 -11.08930 36144 ft 476 kts 41°
2026-05-01 15:02 30.95467 -11.03512 36144 ft 477 kts 41°
2026-05-01 15:03 31.00197 -10.98076 36140 ft 478 kts 41°
2026-05-01 15:03 31.04927 -10.92633 36142 ft 478 kts 41°
2026-05-01 15:04 31.09655 -10.87184 36147 ft 478 kts 41°
2026-05-01 15:04 31.14383 -10.81727 36137 ft 478 kts 41°
2026-05-01 15:05 31.19100 -10.76274 36139 ft 477 kts 41°
2026-05-01 15:05 31.22326 -10.72540 36137 ft 476 kts 41°
2026-05-01 15:06 31.25818 -10.68494 36135 ft 476 kts 41°
2026-05-01 15:06 31.30510 -10.63051 36138 ft 475 kts 41°
2026-05-01 15:07 31.35193 -10.57610 36138 ft 474 kts 41°
2026-05-01 15:07 31.39871 -10.52168 36136 ft 474 kts 41°
2026-05-01 15:08 31.44540 -10.46728 36135 ft 474 kts 41°
2026-05-01 15:08 31.49205 -10.41283 36131 ft 473 kts 41°
2026-05-01 15:09 31.53867 -10.35834 36132 ft 473 kts 41°
2026-05-01 15:09 31.58526 -10.30382 36133 ft 473 kts 41°
2026-05-01 15:10 31.63183 -10.24922 36127 ft 474 kts 41°
2026-05-01 15:10 31.67514 -10.19838 36149 ft 474 kts 41°
2026-05-01 15:11 31.74511 -10.11610 36133 ft 475 kts 41°
2026-05-01 15:12 31.79182 -10.06105 36136 ft 476 kts 41°
2026-05-01 15:12 31.86164 -9.97863 36125 ft 477 kts 41°
2026-05-01 15:14 31.97066 -9.84954 36141 ft 477 kts 41°
2026-05-01 15:14 32.04085 -9.76619 36124 ft 478 kts 41°
2026-05-01 15:15 32.10811 -9.68613 36126 ft 478 kts 41°
2026-05-01 15:16 32.20166 -9.57450 36123 ft 478 kts 41°
2026-05-01 15:18 32.31842 -9.43468 36125 ft 478 kts 41°
2026-05-01 15:19 32.41169 -9.32259 36121 ft 478 kts 41°
2026-05-01 15:19 32.48149 -9.23847 36120 ft 477 kts 41°
2026-05-01 15:20 32.54192 -9.16549 36127 ft 477 kts 41°
2026-05-01 15:21 32.57099 -9.13033 36146 ft 478 kts 41°
2026-05-01 15:21 32.61755 -9.07395 36132 ft 478 kts 41°
2026-05-01 15:22 32.68738 -8.98921 36130 ft 479 kts 41°
2026-05-01 15:22 32.73390 -8.93264 36134 ft 479 kts 41°
2026-05-01 15:23 32.78039 -8.87602 36132 ft 479 kts 41°
2026-05-01 15:23 32.82684 -8.81937 36132 ft 478 kts 41°
2026-05-01 15:24 32.87324 -8.76268 36136 ft 479 kts 41°
2026-05-01 15:24 32.91967 -8.70587 36140 ft 479 kts 41°
2026-05-01 15:25 32.96605 -8.64902 36134 ft 479 kts 41°
2026-05-01 15:25 32.98530 -8.62539 36125 ft 479 kts 41°
2026-05-01 15:26 33.03168 -8.56841 36129 ft 479 kts 41°
2026-05-01 15:26 33.07806 -8.51134 36130 ft 479 kts 41°
2026-05-01 15:27 33.12445 -8.45415 36129 ft 480 kts 41°
2026-05-01 15:28 33.19458 -8.36897 36118 ft 477 kts 35°
2026-05-01 15:28 33.24852 -8.32486 36130 ft 468 kts 25°
2026-05-01 15:29 33.33171 -8.26373 36133 ft 468 kts 26°
2026-05-01 15:30 33.44224 -8.18076 36137 ft 469 kts 26°
2026-05-01 15:31 33.57510 -8.08001 36129 ft 470 kts 26°
2026-05-01 15:32 33.68546 -7.99610 36127 ft 470 kts 26°
2026-05-01 15:34 33.85080 -7.86990 36139 ft 471 kts 26°